RH
26 31 29 29 30 27 27 24 26 32 39 50 55 57 57 61 60 59 57 52 49 50 50 48 46 51 58 60 50 54 55 50 47 61 55 59 73 70 71 63 65 56 53 49 48 48 49
25 30 28 27 30 28 30 28 27 31 38 53 59 65 68 70 69 64 61 59 55 50 51 55 59 60 60 60 59 63 63 56 57 63 59 61 73 72 71 66 65 57 55 52 49 49 50
26 27 28 29 30 29 30 28 27 30 36 51 60 72 74 77 78 77 70 62 59 55 53 60 65 65 66 63 66 65 67 63 66 63 63 64 73 79 71 72 61 62 62 57 50 48 47
26 27 32 29 29 33 29 29 29 29 35 48 59 72 77 81 84 84 81 74 67 62 64 68 72 76 75 74 71 71 77 75 70 66 67 73 84 89 77 71 67 68 65 63 51 48 45
26 28 32 31 30 31 34 29 30 30 33 42 56 70 76 80 85 89 90 87 78 83 81 79 77 80 81 77 77 71 77 80 74 74 71 82 90 93 86 76 72 73 70 59 58 48 46
25 28 32 34 31 32 35 32 29 27 31 41 59 77 84 89 92 93 96 97 91 92 93 90 84 86 79 83 79 71 77 76 84 84 82 88 94 94 89 78 82 74 66 57 54 51 48
25 28 30 33 32 35 35 36 30 27 29 38 60 77 78 90 94 97 98 98 97 96 91 88 80 73 74 81 83 76 79 75 88 93 83 87 94 95 87 75 68 68 61 55 58 56 52
24 31 34 32 35 37 39 37 35 28 27 34 52 66 77 88 95 98 97 98 97 95 95 92 85 80 68 78 87 80 83 77 90 88 83 93 94 91 87 78 72 69 69 62 61 57 54
31 31 36 36 38 37 42 45 41 35 30 29 46 62 81 92 97 98 97 97 98 96 96 93 83 79 71 76 83 87 79 73 87 89 82 84 90 86 88 83 78 70 64 62 66 64 59
32 35 36 37 40 38 41 48 48 44 36 31 36 56 78 88 97 99 98 98 98 98 98 91 90 79 71 77 77 88 75 72 87 86 81 94 93 85 91 83 75 75 68 63 68 69 65
33 34 35 37 40 39 40 48 53 53 49 39 29 47 66 82 95 97 97 98 98 98 97 90 92 85 68 66 77 80 70 75 82 83 84 93 91 86 88 83 75 76 73 74 71 68 59
33 33 35 38 42 40 45 50 53 59 58 51 34 44 57 73 89 97 98 98 98 98 96 97 95 91 78 75 83 85 66 79 88 83 81 96 90 93 80 83 81 73 77 77 70 66 61
39 33 35 39 45 44 44 52 54 61 64 53 37 46 52 66 80 98 98 98 98 97 95 97 96 88 77 80 88 83 62 81 97 94 91 96 91 91 89 85 84 80 82 91 91 80 62
43 39 42 44 47 45 46 52 57 61 65 59 37 45 53 63 81 98 97 97 97 92 93 91 74 91 81 81 93 80 71 82 95 85 83 98 99 85 84 93 83 83 80 81 82 71 59
53 47 45 47 48 46 47 51 57 61 66 66 41 40 50 59 86 98 98 98 92 94 93 82 72 82 87 80 89 74 71 77 92 88 75 87 86 78 83 82 75 91 85 75 71 66 64
52 52 53 49 49 47 48 49 56 62 67 63 40 45 52 64 91 97 98 98 96 97 91 55 64 72 81 79 94 72 69 74 89 82 75 75 79 78 72 78 78 78 73 86 70 70 67
51 51 54 51 50 47 49 48 55 61 67 57 46 51 61 77 92 96 98 97 97 95 79 57 63 71 68 79 91 80 67 86 92 86 79 69 68 72 69 69 73 70 79 75 73 67 61
63 53 53 52 51 48 50 48 55 61 66 55 50 52 67 80 94 97 98 96 95 87 72 68 75 78 76 77 80 83 79 88 88 83 71 66 65 72 66 66 67 62 68 79 69 65 63
73 55 53 54 52 49 51 49 55 62 64 54 59 59 70 82 93 97 96 97 95 82 79 74 72 78 75 86 88 79 81 79 86 85 72 69 70 75 75 72 66 68 64 66 65 60 60
83 64 52 54 53 51 52 50 55 63 64 52 63 62 75 85 95 97 98 97 96 91 91 83 74 77 77 78 80 86 85 82 82 81 76 72 70 67 67 61 60 61 60 62 63 63 61
92 78 62 55 53 53 54 51 55 63 64 49 58 55 71 88 93 96 98 96 96 96 96 95 85 75 74 78 79 84 90 80 82 84 79 73 71 65 62 58 60 57 61 69 62 59 62
96 86 75 57 52 51 54 52 55 64 65 55 53 50 58 77 79 90 97 98 96 98 98 93 83 75 72 70 70 75 79 78 75 78 77 75 76 68 65 64 64 66 64 62 63 61 48
97 93 79 56 52 53 53 52 53 63 65 66 40 39 54 73 79 84 88 96 97 95 96 86 76 73 73 75 72 75 73 76 76 78 75 79 74 74 78 69 65 61 56 61 60 55 37
98 95 81 57 57 53 54 52 52 60 65 69 44 42 60 74 82 80 79 91 96 90 92 81 76 73 72 68 70 75 75 76 79 80 79 82 85 80 75 71 70 57 57 50 47 44 41
98 96 85 61 54 52 53 52 52 59 66 69 50 39 61 74 79 78 77 88 92 89 88 81 82 79 76 75 77 81 80 81 81 84 79 83 81 83 74 69 60 56 53 45 41 44 44
99 97 86 71 58 52 53 50 50 57 66 70 61 39 61 74 71 71 72 80 88 91 86 85 84 83 86 82 84 88 93 78 82 79 77 71 70 71 83 68 58 50 54 55 50 49 48
98 97 88 77 60 52 52 49 48 53 64 71 68 44 60 73 69 65 69 76 79 86 88 86 86 88 87 86 84 87 83 77 77 77 73 73 73 81 80 69 62 59 55 52 56 49 53
98 96 93 80 61 54 52 49 47 52 60 71 73 52 57 72 68 61 64 69 71 71 79 83 84 84 93 90 86 84 82 77 76 72 73 73 75 75 77 72 67 62 57 55 53 51 53
98 97 95 81 68 64 56 50 48 51 58 70 78 62 54 69 71 65 62 62 64 60 64 68 73 72 75 80 85 80 80 80 75 76 74 72 70 71 69 62 59 57 54 51 52 50 55